Timestamp[UTC];2m Lufttemperatur [degC] (tas);Stations-Luftdruck [Pa] (ps);relative Luftfeuchtigkeit [%] (hurs);spezifische Luftfeuchtigkeit [kg/kg] (huss);Niederschlagsmenge [mm] (pr);Windgeschwindigkeit in 2m [m/s] (sfcWind);Windrichtung [deg];maximale Windgeschwindigkeit [m/s] (wsgsmax);u-Windkomponente [m/s] (uas);v-Windkomponente [m/s] (vas);Sonneneinstrahlung [W/m2];Blitzrate [n];Blitzentfernung [km];Bodenfeuchte in 5cm Tiefe [vol%];Bodenfeuchte in 15cm Tiefe [vol%];Bodenfeuchte in 30cm Tiefe [vol%];Bodenfeuchte in 60cm Tiefe [vol%];Bodentemperatur in 5cm Tiefe [degC];Bodentemperatur in 15cm Tiefe [degC];Bodentemperatur in 30cm Tiefe [degC];Bodentemperatur in 60cm Tiefe [degC];Matrixpotential in 30cm Tiefe [kPa];Bodenfeuchte aus CRNS [vol%] (mrso);Neutronen Anzahl [N/h]
2022-07-01 00:00:00;13,0;99508;96;0,009;0,3;nan;nan;nan;nan;nan;0;0;0;27,6;21,3;23,2;29,1;19,5;20,0;19,7;18,0;-148,9;25,2;1513
2022-07-01 01:00:00;12,6;99548;96;0,0088;0,0;nan;nan;nan;nan;nan;0;0;0;27,9;21,3;23,2;29,1;19,3;19,8;19,7;18,0;-148,9;25,4;1503
2022-07-01 02:00:00;12,2;99603;96;0,0086;0,03;nan;nan;nan;nan;nan;0;0;0;28,1;21,3;23,2;29,1;19,0;19,6;19,6;18,1;-149,1;25,7;1630
2022-07-01 03:00:00;11,9;99656;96;0,0084;0,0;nan;nan;nan;nan;nan;2;0;0;28,3;21,3;23,2;29,1;18,7;19,4;19,5;18,1;-148,9;26,1;1576
2022-07-01 04:00:00;11,4;99627;98;0,0083;0,0;nan;nan;nan;nan;nan;16;0;0;28,4;21,3;23,1;29,1;18,5;19,2;19,4;18,1;-149,1;26,4;1593
2022-07-01 05:00:00;11,9;99615;98;0,0085;0,0;nan;nan;nan;nan;nan;78;0;0;28,5;21,3;23,1;29,1;18,3;19,0;19,3;18,1;-149,2;26,7;1442
2022-07-01 06:00:00;13,1;99663;99;0,0093;0,0;1,8;252;2,9;-0,55;-1,7;176;0;0;28,6;21,3;23,1;29,1;18,2;18,9;19,2;18,1;-148,6;26,9;1535
2022-07-01 07:00:00;14,6;99700;88;0,0092;0,0;1,1;266;2,4;-0,06;-1,05;222;0;0;28,6;21,3;23,1;29,1;18,4;18,8;19,1;18,1;-150,0;26,5;1548
2022-07-01 08:00:00;15,3;99743;81;0,0088;0,0;0,9;280;2,0;0,16;-0,81;269;0;0;28,6;21,3;23,1;29,1;18,6;18,8;19,0;18,1;-148,6;26,3;1483
2022-07-01 09:00:00;16,3;99752;76;0,0088;0,0;1,2;326;3,1;0,88;-0,6;442;0;0;28,6;21,3;23,1;29,1;18,9;18,8;19,0;18,1;-149,3;26,3;1528
2022-07-01 10:00:00;17,6;99745;68;0,0085;0,0;1,8;232;4,2;1,18;-0,41;456;0;0;28,6;21,3;23,1;29,1;19,5;19,0;18,9;18,1;-150,4;26,5;1493
2022-07-01 11:00:00;17,9;99752;64;0,0083;0,0;1,9;183;3,6;1,85;-0,06;405;0;0;28,5;21,3;23,1;29,1;19,9;19,2;18,9;18,1;-151,8;26,6;1583
2022-07-01 12:00:00;18,4;99750;60;0,008;0,0;2,1;5;3,9;2,05;0,15;371;0;0;28,4;21,3;23,1;29,1;20,3;19,5;18,9;18,1;-151,8;26,4;1156
2022-07-01 13:00:00;19,3;99758;57;0,008;0,0;2,0;194;4,5;1,75;0,08;481;0;0;28,2;21,3;23,1;29,1;20,6;19,7;18,9;18,1;-153,1;26,2;746
2022-07-01 14:00:00;19,8;99792;54;0,0078;0,0;1,2;101;2,7;0,9;0,26;320;0;0;28,1;21,3;23,1;29,1;20,9;19,9;18,9;18,1;-152,8;26,1;500
2022-07-01 15:00:00;20,1;99820;54;0,0079;0,0;1,6;306;4,3;0,88;-1,28;322;0;0;27,9;21,3;23,1;29,1;21,0;20,1;19,0;18,1;-153,2;26,3;280
2022-07-01 16:00:00;20,8;99825;52;0,008;0,0;1,2;216;2,6;-0,72;-0,43;400;0;0;27,8;21,3;23,1;29,1;21,1;20,2;19,0;18,0;-154,5;26,5;1130
2022-07-01 17:00:00;19,5;99865;56;0,0078;0,0;1,6;168;3,2;-1,54;0,3;112;0;0;27,6;21,3;23,1;29,1;20,9;20,3;19,1;18,0;-153,5;26,7;1553
2022-07-01 18:00:00;19,4;99908;59;0,0082;0,0;1,6;236;3,3;-0,22;-1,06;130;0;0;27,6;21,3;23,1;29,1;20,6;20,3;19,2;18,0;-153,4;26,2;1627
2022-07-01 19:00:00;18,3;99958;60;0,0079;0,0;1,0;248;1,6;-0,36;-0,94;42;0;0;27,5;21,3;23,1;29,1;20,3;20,2;19,2;18,0;-152,4;26,1;1471
2022-07-01 20:00:00;15,8;100033;67;0,0075;0,0;1,0;241;1,6;-0,5;-0,9;1;0;0;27,5;21,3;23,1;29,1;19,9;20,1;19,2;18,0;-152,2;26,1;1514
2022-07-01 21:00:00;13,8;100102;73;0,0072;0,0;0,7;183;1,4;-0,43;-0,32;0;0;0;27,5;21,3;23,1;29,1;19,4;19,8;19,3;18,0;-152,0;26,5;1504
2022-07-01 22:00:00;11,7;100147;82;0,007;0,0;0,5;95;0,9;-0,11;0,49;0;0;0;27,5;21,3;23,1;29,1;18,9;19,6;19,2;18,0;-151,9;26,5;1482
2022-07-01 23:00:00;10,6;100168;87;0,0069;0,0;0,6;125;1,5;-0,25;0,23;0;0;0;27,4;21,3;23,1;29,1;18,4;19,3;19,2;18,0;-151,4;26,3;1495
2022-07-02 00:00:00;9,8;100192;89;0,0067;0,0;0,4;144;0,9;-0,33;0,19;0;0;0;27,4;21,3;23,1;29,1;18,0;19,0;19,1;18,0;-151,8;26,5;1520
2022-07-02 01:00:00;9,4;100187;89;0,0065;0,0;0,4;170;0,7;-0,36;0,05;0;0;0;27,4;21,3;23,1;29,1;17,6;18,7;19,1;18,0;-151,6;26,5;1508
2022-07-02 02:00:00;9,1;100188;91;0,0065;0,0;0,4;145;0,6;-0,27;0,17;0;0;0;27,3;21,3;23,1;29,1;17,2;18,4;19,0;18,0;-151,8;26,4;1552
2022-07-02 03:00:00;8,8;100180;91;0,0064;0,0;0,5;169;0,8;-0,46;0,1;3;0;0;27,3;21,3;23,1;29,1;16,9;18,1;18,9;18,0;-151,6;26,5;1491
2022-07-02 04:00:00;10,3;100185;91;0,0071;0,0;0,8;134;1,6;-0,48;0,54;68;0;0;27,3;21,3;23,1;29,1;16,6;17,9;18,7;18,0;-151,6;26,3;1477
2022-07-02 05:00:00;13,5;100165;84;0,0081;0,0;2,0;158;3,7;-1,83;0,67;169;0;0;27,3;21,3;23,1;29,1;16,4;17,6;18,6;18,0;-151,0;26,3;1573
2022-07-02 06:00:00;16,9;100163;72;0,0086;0,0;1,9;137;4,1;-1,38;1,14;308;0;0;27,2;21,3;23,1;29,1;16,4;17,4;18,5;18,0;-151,5;26,3;1559
2022-07-02 07:00:00;19,6;100152;62;0,0088;0,0;2,0;138;3,7;-1,46;1,32;478;0;0;27,1;21,3;23,1;29,1;16,6;17,3;18,4;18,0;-151,9;26,5;1519
2022-07-02 08:00:00;20,7;100152;56;0,0085;0,0;1,7;184;4,0;-1,54;-0,01;604;0;0;27,0;21,3;23,1;29,0;17,2;17,4;18,2;18,0;-153,4;26,3;1344
2022-07-02 09:00:00;22,1;100113;50;0,0084;0,0;2,1;119;4,4;-1,03;1,82;705;0;0;26,7;21,3;23,1;29,0;18,0;17,6;18,1;18,0;-156,6;26,1;1519
2022-07-02 10:00:00;22,4;100065;49;0,0083;0,0;1,6;64;3,8;0,59;1,19;641;0;0;26,4;21,3;23,0;29,0;19,0;18,0;18,1;18,0;-159,6;25,9;1081
2022-07-02 11:00:00;23,8;100007;44;0,0081;0,0;2,3;121;5,1;-1,23;1,95;830;0;0;26,1;21,3;23,0;29,0;20,0;18,5;18,1;17,9;-163,7;25,6;1556
2022-07-02 12:00:00;24,3;99972;43;0,0081;0,0;1,8;153;4,0;-1,26;0,76;792;0;0;25,7;21,3;23,0;29,0;20,9;19,0;18,1;17,9;-167,5;25,5;1543
2022-07-02 13:00:00;25,1;99915;42;0,0083;0,0;1,6;206;3,9;-1,19;-0,61;772;0;0;25,4;21,3;23,0;29,0;21,7;19,6;18,2;17,9;-172,1;25,5;1561
2022-07-02 14:00:00;26,2;99837;38;0,0082;0,0;1,9;154;4,4;-1,56;0,74;648;0;0;25,0;21,3;23,0;29,0;22,3;20,1;18,4;17,9;-174,0;25,3;1527
2022-07-02 15:00:00;26,5;99778;36;0,0078;0,0;2,0;139;4,5;-1,54;1,31;465;0;0;24,7;21,3;23,0;29,0;22,4;20,6;18,5;17,9;-174,5;25,0;1630
2022-07-02 16:00:00;26,6;99715;37;0,0081;0,0;2,2;140;4,5;-1,7;1,38;373;0;0;24,4;21,3;22,9;29,0;22,3;20,8;18,7;17,9;-174,2;24,7;1528
2022-07-02 17:00:00;26,2;99686;39;0,0083;0,0;2,5;132;4,7;-1,7;1,87;254;0;0;24,2;21,3;22,9;29,0;22,0;20,9;18,9;17,9;-173,8;24,6;1587
2022-07-02 18:00:00;25,4;99662;44;0,0089;0,0;1,6;138;2,9;-1,2;1,1;137;0;0;24,1;21,3;22,9;29,0;21,6;20,9;19,0;17,8;-172,8;24,8;1562
2022-07-02 19:00:00;23,4;99642;49;0,0088;0,0;1,4;164;2,5;-1,32;0,36;30;0;0;24,0;21,3;22,9;29,0;21,2;20,8;19,1;17,8;-173,1;24,7;1570
2022-07-02 20:00:00;20,5;99645;57;0,0086;0,0;1,7;222;3,1;-0,88;-1,11;0;0;0;23,9;21,3;22,9;29,0;20,8;20,6;19,2;17,8;-171,4;25,2;1654
2022-07-02 21:00:00;18,9;99703;62;0,0085;0,0;1,9;260;3,6;-0,26;-1,87;0;0;0;23,9;21,3;22,9;29,0;20,3;20,5;19,3;17,8;-172,4;24,7;1631
2022-07-02 22:00:00;17,6;99705;66;0,0084;0,0;1,7;261;3,1;-0,25;-1,7;0;0;0;23,9;21,3;22,9;29,0;19,9;20,2;19,3;17,8;-171,6;24,6;1641
2022-07-02 23:00:00;16,9;99727;68;0,0082;0,0;1,7;254;2,8;-0,46;-1,66;0;0;0;23,8;21,3;22,9;29,0;19,5;20,0;19,3;17,8;-171,7;24,5;1572
2022-07-03 00:00:00;16,1;99712;71;0,0081;0,0;1,2;221;2,2;-0,56;-0,94;0;0;0;23,8;21,3;22,9;29,0;19,2;19,8;19,3;17,9;-172,3;24,3;1581
2022-07-03 01:00:00;14,0;99682;78;0,0078;0,0;0,6;179;1,2;-0,6;-0,05;0;0;0;23,7;21,3;22,9;29,0;18,9;19,6;19,3;17,9;-171,1;24,1;1626
2022-07-03 02:00:00;12,6;99663;84;0,0077;0,0;0,5;182;0,8;-0,31;0,11;0;0;0;23,7;21,3;22,9;29,0;18,5;19,3;19,2;17,9;-170,5;23,9;1683
2022-07-03 03:00:00;12,4;99668;86;0,0078;0,0;0,5;248;0,8;-0,01;-0,02;4;0;0;23,7;21,3;22,9;29,0;18,2;19,1;19,2;17,9;-169,7;23,6;1695
2022-07-03 04:00:00;12,8;99673;88;0,0081;0,0;0,5;191;0,8;-0,46;-0,07;59;0;0;23,6;21,3;22,9;29,0;17,9;18,8;19,1;17,9;-170,9;23,8;1528
2022-07-03 05:00:00;16,2;99685;82;0,0094;0,0;0,4;70;0,7;0,2;0,19;147;0;0;23,6;21,3;22,9;29,0;17,7;18,6;19,0;17,9;-169,7;23,5;1544
2022-07-03 06:00:00;19,4;99697;71;0,0101;0,0;0,9;66;2,1;0,48;0,34;277;0;0;23,6;21,3;22,9;29,0;17,7;18,5;18,9;17,9;-169,8;23,4;1620
2022-07-03 07:00:00;19,6;99728;68;0,0098;0,0;2,2;343;3,8;2,07;-0,59;446;0;0;23,5;21,3;22,9;29,0;17,9;18,4;18,8;17,9;-172,1;23,2;1331
2022-07-03 08:00:00;21,2;99718;64;0,01;0,0;1,5;257;3,3;1,43;-0,3;586;0;0;23,4;21,3;22,9;29,0;18,5;18,4;18,7;17,9;-172,0;23,0;591
2022-07-03 09:00:00;22,4;99720;61;0,0104;0,0;1,9;342;3,8;1,75;-0,57;637;0;0;23,2;21,3;22,9;29,0;19,4;18,7;18,6;17,9;-174,0;22,9;416
2022-07-03 10:00:00;23,2;99717;58;0,0103;0,0;1,8;332;4,1;1,57;-0,8;753;0;0;22,9;21,3;22,9;29,0;20,4;19,1;18,6;17,9;-177,8;22,8;1613
2022-07-03 11:00:00;24,4;99682;53;0,0102;0,0;1,6;336;3,5;1,43;-0,61;633;0;0;22,6;21,3;22,9;29,0;21,5;19,6;18,6;17,9;-182,2;22,7;1600
2022-07-03 12:00:00;24,7;99650;52;0,0102;0,0;2,2;338;4,2;2,02;-0,8;660;0;0;22,4;21,3;22,8;28,9;22,2;20,1;18,7;17,9;-184,8;22,3;1630
2022-07-03 13:00:00;24,2;99652;55;0,0103;0,0;3,2;326;5,8;2,69;-1,74;599;0;0;22,2;21,3;22,8;28,9;22,6;20,6;18,8;17,9;-187,0;22,1;1625
2022-07-03 14:00:00;23,6;99670;56;0,0102;0,0;4,2;331;7,2;3,63;-2,04;543;0;0;21,9;21,3;22,8;28,9;22,8;21,0;19,0;17,9;-189,0;22,0;1636
2022-07-03 15:00:00;23,1;99688;57;0,0101;0,0;3,7;337;6,7;3,4;-1,39;354;0;0;21,7;21,3;22,8;28,9;22,8;21,2;19,1;17,9;-190,6;21,9;1542
2022-07-03 16:00:00;22,5;99697;57;0,0098;0,0;3,6;338;6,3;3,38;-1,28;279;0;0;21,5;21,3;22,8;28,9;22,6;21,3;19,3;17,9;-190,6;22,1;1610
2022-07-03 17:00:00;21,6;99720;58;0,0094;0,0;3,8;338;7,0;3,52;-1,41;188;0;0;21,4;21,3;22,8;28,9;22,3;21,3;19,4;17,9;-187,5;21,8;1595
2022-07-03 18:00:00;20,4;99723;58;0,0087;0,0;3,6;327;6,6;3,06;-1,95;44;0;0;21,3;21,3;22,8;28,9;21,8;21,3;19,5;17,9;-188,0;21,6;1628
2022-07-03 19:00:00;18,8;99750;61;0,0083;0,0;2,2;319;4,5;1,7;-1,42;16;0;0;21,2;21,3;22,8;28,9;21,3;21,1;19,6;17,9;-187,8;21,5;1676
2022-07-03 20:00:00;17,2;99835;67;0,0082;0,0;1,7;319;3,3;1,31;-1,09;0;0;0;21,2;21,3;22,8;28,9;20,8;20,9;19,6;17,9;-186,5;20,7;1661
2022-07-03 21:00:00;16,2;99908;72;0,0083;0,0;1,9;294;3,3;0,78;-1,69;0;0;0;21,2;21,3;22,8;28,9;20,3;20,6;19,6;17,9;-184,9;20,9;1662
2022-07-03 22:00:00;14,9;99917;75;0,0079;0,0;1,4;274;2,3;0,12;-1,36;0;0;0;21,1;21,3;22,8;28,9;19,9;20,3;19,6;18,0;-184,8;20,9;1678
2022-07-03 23:00:00;14,0;99940;76;0,0076;0,0;1,4;260;2,4;-0,22;-1,33;0;0;0;21,1;21,3;22,8;28,9;19,5;20,1;19,6;18,0;-184,3;20,9;1728
2022-07-04 00:00:00;13,1;99942;78;0,0074;0,0;1,4;254;2,2;-0,36;-1,3;0;0;0;21,1;21,3;22,8;28,9;19,0;19,8;19,5;18,0;-184,1;20,7;1668
2022-07-04 01:00:00;12,5;99930;80;0,0072;0,0;1,2;254;2,0;-0,33;-1,19;0;0;0;21,0;21,3;22,8;28,9;18,6;19,5;19,4;18,0;-184,1;20,6;1649
2022-07-04 02:00:00;12,0;99958;81;0,0071;0,0;1,2;244;1,7;-0,51;-1,06;0;0;0;21,0;21,3;22,8;28,9;18,3;19,2;19,4;18,0;-184,8;20,7;1681
2022-07-04 03:00:00;10,3;99994;86;0,0067;0,0;0,5;163;0,8;-0,45;0,14;5;0;0;21,0;21,3;22,8;28,9;17,9;19,0;19,3;18,0;-184,6;20,7;1572
2022-07-04 04:00:00;11,0;100012;88;0,0072;0,0;0,5;115;0,8;-0,2;0,4;74;0;0;20,9;21,3;22,7;28,9;17,5;18,7;19,2;18,0;-184,8;20,5;1660
2022-07-04 05:00:00;14,2;100005;82;0,0083;0,0;0,5;132;1,0;-0,31;0,34;178;0;0;20,9;21,3;22,7;28,9;17,4;18,4;19,0;18,0;-184,4;20,5;1626
2022-07-04 06:00:00;16,8;100005;72;0,0087;0,0;0,6;143;1,6;-0,39;0,32;314;0;0;20,9;21,3;22,7;28,9;17,5;18,3;18,9;18,0;-186,0;20,2;1644
2022-07-04 07:00:00;18,4;99967;63;0,0083;0,0;0,8;275;2,0;0,06;-0,5;458;0;0;20,7;21,3;22,7;28,9;17,8;18,2;18,8;18,1;-186,0;20,1;1703
2022-07-04 08:00:00;19,4;99968;56;0,0079;0,0;1,2;232;2,9;0,86;-0,52;590;0;0;20,6;21,3;22,7;28,9;18,3;18,3;18,7;18,1;-190,2;20,1;1569
2022-07-04 09:00:00;19,9;99977;52;0,0076;0,0;2,1;341;4,8;1,98;-0,64;701;0;0;20,4;21,2;22,7;28,9;19,1;18,5;18,6;18,1;-192,5;20,0;1637
2022-07-04 10:00:00;20,6;99940;49;0,0074;0,0;2,3;336;4,4;2,01;-0,93;770;0;0;20,1;21,2;22,7;28,9;20,0;18,9;18,6;18,0;-197,1;19,9;1662
2022-07-04 11:00:00;21,4;99920;48;0,0076;0,0;2,2;244;4,8;1,89;-0,72;774;0;0;19,9;21,2;22,7;28,9;21,0;19,3;18,6;18,0;-202,1;19,9;1739
2022-07-04 12:00:00;22,2;99900;46;0,0077;0,0;2,0;174;4,7;1,96;-0,04;744;0;0;19,6;21,2;22,6;28,9;21,7;19,8;18,7;18,0;-206,8;20,0;1652
2022-07-04 13:00:00;22,9;99863;46;0,0081;0,0;2,3;266;4,6;2,25;-0,13;765;0;0;19,4;21,2;22,6;28,9;22,2;20,3;18,7;18,0;-211,0;20,0;1625
2022-07-04 14:00:00;22,8;99840;46;0,0079;0,0;2,2;254;5,1;2,09;-0,63;532;0;0;19,2;21,1;22,6;28,8;22,4;20,6;18,9;18,0;-214,8;19,9;1672
2022-07-04 15:00:00;23,2;99788;45;0,0081;0,0;2,8;174;5,8;2,77;-0,3;531;0;0;18,9;21,1;22,5;28,8;22,4;20,9;19,0;18,0;-214,8;19,9;1678
2022-07-04 16:00:00;23,0;99763;45;0,008;0,0;3,1;231;5,7;3,07;-0,52;420;0;0;18,8;21,1;22,5;28,8;22,3;21,0;19,1;18,0;-217,2;19,7;1651
2022-07-04 17:00:00;22,7;99756;46;0,008;0,0;2,8;277;5,2;2,74;-0,51;260;0;0;18,6;21,1;22,5;28,8;22,0;21,0;19,2;18,0;-216,7;19,7;1766
2022-07-04 18:00:00;21,2;99790;52;0,0082;0,0;1,5;339;2,9;1,38;-0,41;92;0;0;18,6;21,1;22,5;28,8;21,6;21,0;19,3;18,0;-216,4;19,6;1745
2022-07-04 19:00:00;20,0;99818;55;0,0081;0,0;0,9;308;1,4;0,52;-0,65;28;0;0;18,5;21,1;22,4;28,8;21,1;20,9;19,4;18,0;-216,8;19,6;1686
2022-07-04 20:00:00;16,1;99880;68;0,0078;0,0;1,6;239;2,0;-0,81;-1,35;0;0;0;18,5;21,1;22,4;28,8;20,5;20,6;19,5;18,0;-215,2;19,9;1720
2022-07-04 21:00:00;14,6;99905;73;0,0076;0,0;1,5;245;2,1;-0,65;-1,4;0;0;0;18,4;21,1;22,4;28,8;19,9;20,3;19,5;18,0;-214,9;19,8;1738
2022-07-04 22:00:00;14,8;99922;71;0,0074;0,0;1,3;240;1,9;-0,64;-1,15;0;0;0;18,4;21,1;22,4;28,8;19,4;20,0;19,5;18,0;-214,4;19,9;1693
2022-07-04 23:00:00;14,5;99950;73;0,0075;0,0;0,9;281;1,7;0,11;-0,77;0;0;0;18,4;21,1;22,4;28,8;19,0;19,7;19,4;18,0;-214,7;19,9;1668
2022-07-05 00:00:00;14,7;99975;73;0,0076;0,0;1,8;272;3,2;0,05;-1,78;0;0;0;18,3;21,1;22,4;28,8;18,7;19,4;19,4;18,0;-215,7;20,1;1698
2022-07-05 01:00:00;14,5;99980;76;0,0079;0,0;1,8;272;2,9;0,08;-1,77;0;0;0;18,3;21,1;22,4;28,8;18,4;19,2;19,3;18,0;-215,1;19,9;1696
2022-07-05 02:00:00;13,9;100013;79;0,0078;0,0;1,8;270;3,0;0,01;-1,79;0;0;0;18,3;21,1;22,4;28,8;18,1;19,0;19,2;18,0;-216,3;19,8;1687
2022-07-05 03:00:00;13,4;100012;81;0,0077;0,0;1,5;259;2,7;-0,24;-1,46;3;0;0;18,3;21,1;22,4;28,8;17,9;18,8;19,1;18,0;-216,6;19,7;1653
2022-07-05 04:00:00;13,0;100035;84;0,0078;0,0;0,6;209;1,1;0,16;-0,44;46;0;0;18,2;21,0;22,4;28,8;17,7;18,6;19,0;18,1;-214,7;19,7;1661
2022-07-05 05:00:00;15,5;100050;80;0,0088;0,0;1,7;292;3,2;0,68;-1,56;165;0;0;18,2;21,0;22,4;28,8;17,6;18,4;18,9;18,1;-216,3;19,8;1684
2022-07-05 06:00:00;16,4;100067;77;0,009;0,0;2,1;312;3,6;1,39;-1,52;278;0;0;18,2;21,0;22,4;28,8;17,7;18,3;18,8;18,1;-215,6;19,8;1655
2022-07-05 07:00:00;17,9;100087;71;0,0091;0,0;2,0;300;3,4;1,02;-1,69;430;0;0;18,1;21,0;22,4;28,8;18,0;18,3;18,8;18,1;-216,8;19,9;1556
2022-07-05 08:00:00;19,0;100100;66;0,009;0,0;2,4;337;5,0;2,17;-0,92;539;0;0;18,0;21,0;22,4;28,8;18,4;18,4;18,7;18,1;-218,8;20,0;1580
2022-07-05 09:00:00;20,6;100095;59;0,0089;0,0;2,8;344;5,6;2,73;-0,75;670;0;0;17,9;21,0;22,3;28,8;19,1;18,6;18,6;18,1;-226,2;20,0;1607
2022-07-05 10:00:00;21,4;100103;54;0,0086;0,0;3,1;338;6,1;2,85;-1,07;776;0;0;17,8;20,9;22,3;28,8;19,9;18,9;18,6;18,0;-231,2;20,0;1653
2022-07-05 11:00:00;22,1;100082;50;0,0083;0,0;2,9;340;6,2;2,66;-0,91;730;0;0;17,6;20,9;22,2;28,8;20,8;19,2;18,6;18,0;-234,2;20,0;1608
2022-07-05 12:00:00;22,6;100053;48;0,0081;0,0;3,8;335;6,8;3,4;-1,55;740;0;0;17,4;20,9;22,2;28,7;21,6;19,7;18,6;18,0;-241,2;20,1;1734
2022-07-05 13:00:00;23,0;100045;47;0,0082;0,0;3,8;347;7,3;3,72;-0,81;722;0;0;17,2;20,8;22,1;28,7;22,1;20,2;18,7;18,0;-249,0;20,3;1690
2022-07-05 14:00:00;22,0;100060;48;0,0078;0,0;3,3;348;5,9;3,2;-0,6;396;0;0;17,1;20,8;22,1;28,7;22,2;20,5;18,8;18,0;-251,4;20,2;1726
2022-07-05 15:00:00;22,4;100032;46;0,0078;0,0;3,5;340;6,6;3,26;-1,18;398;0;0;17,0;20,7;22,0;28,7;22,0;20,7;19,0;18,0;-251,4;20,2;1660
2022-07-05 16:00:00;22,3;100008;46;0,0078;0,0;3,9;334;6,9;3,48;-1,63;308;0;0;16,9;20,7;22,0;28,7;21,7;20,7;19,1;18,0;-252,4;20,1;1582
2022-07-05 17:00:00;22,0;100005;47;0,0078;0,0;4,4;344;8,3;4,26;-1,21;270;0;0;16,9;20,7;22,0;28,7;21,4;20,7;19,2;18,0;-254,4;20,2;1732
2022-07-05 18:00:00;19,8;100084;56;0,0081;0,0;4,3;331;7,7;3,75;-2,01;97;0;0;16,8;20,7;21,9;28,7;21,0;20,6;19,2;18,0;-256,0;20,2;1682
2022-07-05 19:00:00;18,0;100160;62;0,008;0,0;3,2;338;5,7;2,95;-1,15;8;0;0;16,8;20,7;21,9;28,7;20,5;20,4;19,3;18,0;-257,4;20,3;1571
2022-07-05 20:00:00;17,3;100230;64;0,0079;0,0;2,5;324;4,5;2,01;-1,4;0;0;0;16,7;20,7;21,9;28,7;20,1;20,2;19,3;18,0;-255,0;20,2;1663
2022-07-05 21:00:00;16,6;100282;66;0,0078;0,0;2,3;316;4,3;1,68;-1,61;0;0;0;16,7;20,6;21,9;28,7;19,7;20,0;19,3;18,0;-253,6;20,0;1673
2022-07-05 22:00:00;16,0;100338;67;0,0076;0,0;3,2;312;5,9;2,14;-2,36;0;0;0;16,7;20,6;21,9;28,7;19,4;19,8;19,3;18,0;-256,2;19,8;1668
2022-07-05 23:00:00;15,2;100378;68;0,0073;0,0;2,9;316;5,9;2,09;-1,94;0;0;0;16,7;20,6;21,9;28,7;19,0;19,6;19,3;18,0;-254,9;19,9;1587
2022-07-06 00:00:00;14,0;100405;72;0,0071;0,0;2,0;304;3,4;1,09;-1,62;0;0;0;16,6;20,6;21,9;28,7;18,7;19,3;19,2;18,0;-261,7;19,6;1533
2022-07-06 01:00:00;11,9;100398;75;0,0065;0,0;1,4;304;2,9;0,82;-1,18;0;0;0;16,6;20,6;21,9;28,7;18,4;19,1;19,2;18,0;-258,6;19,7;1690
2022-07-06 02:00:00;10,8;100405;78;0,0063;0,0;1,6;296;3,0;0,7;-1,4;0;0;0;16,6;20,6;21,8;28,7;18,0;18,9;19,1;18,0;-260,4;19,7;1689
2022-07-06 03:00:00;11,0;100398;79;0,0064;0,0;1,7;302;3,2;0,91;-1,4;7;0;0;16,6;20,6;21,8;28,7;17,6;18,6;19,0;18,0;-260,1;19,8;1657
2022-07-06 04:00:00;10,9;100413;80;0,0065;0,0;1,7;297;3,1;0,79;-1,45;34;0;0;16,6;20,6;21,8;28,7;17,4;18,4;18,9;18,0;-262,4;19,8;1603
2022-07-06 05:00:00;11,6;100440;80;0,0068;0,0;1,9;301;3,7;1,0;-1,57;97;0;0;16,6;20,6;21,8;28,7;17,2;18,2;18,8;18,0;-264,9;19,4;1643
2022-07-06 06:00:00;13,0;100445;79;0,0073;0,0;2,6;312;5,0;1,78;-1,85;242;0;0;16,5;20,6;21,8;28,6;17,2;18,0;18,7;18,1;-264,7;19,4;1613
2022-07-06 07:00:00;14,5;100460;74;0,0076;0,0;2,8;338;5,1;2,61;-1,0;360;0;0;16,5;20,6;21,8;28,6;17,3;17,9;18,6;18,0;-269,2;19,6;1586
2022-07-06 08:00:00;14,8;100465;68;0,0071;0,0;2,9;335;5,3;2,66;-1,2;287;0;0;16,5;20,5;21,8;28,6;17,7;18,0;18,5;18,0;-272,2;19,4;1664
2022-07-06 09:00:00;15,0;100468;66;0,007;0,0;2,8;344;4,8;2,72;-0,72;274;0;0;16,5;20,5;21,8;28,6;17,9;18,0;18,4;18,0;-273,5;19,2;1670
2022-07-06 10:00:00;16,2;100470;64;0,0073;0,0;3,2;341;5,6;3,04;-1,01;552;0;0;16,4;20,5;21,7;28,6;18,2;18,1;18,4;18,0;-276,5;19,1;1609
2022-07-06 11:00:00;17,0;100458;60;0,0072;0,0;2,8;332;5,7;2,49;-1,24;607;0;0;16,3;20,5;21,7;28,6;18,7;18,3;18,4;18,0;-283,8;19,2;1695
2022-07-06 12:00:00;18,0;100438;55;0,0071;0,0;3,1;329;6,3;2,62;-1,52;550;0;0;16,3;20,4;21,6;28,6;19,3;18,5;18,3;18,0;-293,2;19,0;1643
2022-07-06 13:00:00;18,5;100388;53;0,007;0,0;2,9;346;6,5;2,86;-0,65;522;0;0;16,2;20,4;21,6;28,6;19,7;18,8;18,3;18,0;-297,3;18,7;1640
2022-07-06 14:00:00;19,3;100337;50;0,007;0,0;3,1;339;6,4;2,9;-1,02;591;0;0;16,1;20,3;21,5;28,6;19,9;19,0;18,4;18,0;-302,2;18,8;1650
2022-07-06 15:00:00;20,1;100288;48;0,0071;0,0;3,1;336;6,8;2,84;-1,2;516;0;0;16,0;20,3;21,5;28,6;20,1;19,2;18,4;18,0;-306,3;18,9;1689
2022-07-06 16:00:00;20,0;100237;48;0,007;0,0;3,3;342;6,2;3,09;-0,92;362;0;0;16,0;20,2;21,4;28,5;20,2;19,3;18,5;18,0;-307,9;18,9;1755
2022-07-06 17:00:00;20,0;100202;49;0,0071;0,0;3,1;336;6,2;2,78;-1,23;256;0;0;15,9;20,2;21,4;28,5;20,0;19,4;18,5;17,9;-312,2;18,8;1715
2022-07-06 18:00:00;19,2;100202;52;0,0071;0,0;2,6;319;4,9;1,94;-1,65;110;0;0;15,9;20,2;21,4;28,5;19,7;19,4;18,6;17,9;-319,0;18,7;1602
2022-07-06 19:00:00;18,1;100180;58;0,0074;0,0;1,5;304;3,3;0,88;-1,2;36;0;0;15,9;20,2;21,3;28,5;19,3;19,3;18,6;17,9;-324,8;18,7;1709
2022-07-06 20:00:00;16,6;100190;65;0,0076;0,0;1,2;239;1,6;-0,6;-1,02;2;0;0;15,9;20,2;21,3;28,5;18,9;19,2;18,6;17,9;-318,3;18,7;1767
2022-07-06 21:00:00;16,2;100190;67;0,0076;0,0;1,3;238;2,1;-0,69;-1,14;0;0;0;15,9;20,2;21,3;28,5;18,6;19,0;18,6;17,9;-320,3;18,9;1711
2022-07-06 22:00:00;16,5;100158;67;0,0078;0,0;1,5;229;2,6;-1,0;-1,17;0;0;0;15,8;20,2;21,3;28,5;18,3;18,8;18,6;17,9;-324,6;18,9;1636
2022-07-06 23:00:00;16,6;100118;68;0,008;0,0;1,6;235;2,9;-0,94;-1,33;0;0;0;15,8;20,2;21,3;28,5;18,1;18,6;18,6;17,9;-323,8;18,9;1752
2022-07-07 00:00:00;16,4;100068;69;0,008;0,0;1,4;246;2,5;-0,57;-1,3;0;0;0;15,8;20,2;21,3;28,5;17,9;18,5;18,6;17,9;-327,2;19,0;1721
2022-07-07 01:00:00;16,3;100010;70;0,0081;0,0;1,6;256;3,1;-0,35;-1,51;0;0;0;15,8;20,1;21,3;28,5;17,8;18,4;18,5;17,9;-331,1;18,9;1687
2022-07-07 02:00:00;16,5;99980;71;0,0083;0,0;1,4;265;2,8;-0,12;-1,42;0;0;0;15,8;20,1;21,3;28,5;17,6;18,3;18,5;17,9;-330,8;19,0;1673
2022-07-07 03:00:00;16,8;99935;71;0,0085;0,0;2,2;249;4,2;-0,75;-2,06;0;0;0;15,8;20,1;21,3;28,5;17,6;18,2;18,4;17,9;-332,6;19,0;1664
2022-07-07 04:00:00;17,0;99902;73;0,0089;0,0;2,4;267;4,7;-0,11;-2,37;7;0;0;15,8;20,1;21,2;28,5;17,5;18,1;18,4;17,9;-333,4;19,1;1720
2022-07-07 05:00:00;17,1;99885;75;0,0091;0,0;2,4;275;5,0;0,24;-2,43;47;0;0;15,8;20,1;21,2;28,5;17,5;18,0;18,3;17,9;-335,0;19,3;1740
2022-07-07 06:00:00;17,0;99890;76;0,0093;0,0;2,9;279;6,1;0,51;-2,8;72;0;0;15,8;20,1;21,2;28,5;17,6;18,0;18,3;17,9;-337,2;19,4;1688
2022-07-07 07:00:00;15,3;99942;90;0,0098;1,56;3,8;313;7,1;2,68;-2,68;144;0;0;15,9;20,1;21,2;28,5;17,6;17,9;18,2;17,9;-339,7;19,4;1607
2022-07-07 08:00:00;15,4;99978;92;0,0101;0,66;4,9;310;8,6;3,2;-3,68;284;0;0;15,9;20,1;21,2;28,5;17,7;17,9;18,2;17,9;-338,0;19,6;1570
2022-07-07 09:00:00;15,6;100035;85;0,0094;0,17;4,2;325;8,7;3,42;-2,37;190;0;0;15,9;20,1;21,2;28,5;17,9;18,0;18,2;17,8;-339,6;19,8;1655
2022-07-07 10:00:00;15,9;100100;86;0,0096;0,29;5,1;324;9,5;4,08;-2,97;421;0;0;15,9;20,1;21,2;28,5;17,9;18,0;18,1;17,8;-338,8;19,7;1597
2022-07-07 11:00:00;17,4;100130;78;0,0097;0,0;5,1;330;9,6;4,41;-2,5;422;0;0;15,9;20,1;21,2;28,5;18,2;18,1;18,1;17,8;-341,2;19,6;1659
2022-07-07 12:00:00;17,2;100218;74;0,009;0,0;4,5;324;8,2;3,56;-2,62;191;0;0;15,9;20,1;21,2;28,5;18,2;18,1;18,1;17,8;-341,0;19,7;1632
2022-07-07 13:00:00;17,3;100275;74;0,009;0,0;5,4;319;9,4;4,16;-3,5;258;0;0;15,9;20,1;21,2;28,5;18,2;18,2;18,1;17,8;-342,1;19,7;1592
2022-07-07 14:00:00;17,0;100323;75;0,0091;0,0;4,5;317;8,7;3,22;-3,04;154;0;0;15,9;20,1;21,2;28,5;18,2;18,2;18,1;17,8;-347,3;19,6;1608
2022-07-07 15:00:00;17,4;100345;75;0,0093;0,0;4,3;314;7,8;2,96;-3,15;158;0;0;15,9;20,1;21,2;28,5;18,1;18,2;18,1;17,8;-348,7;19,5;1589
2022-07-07 16:00:00;18,2;100360;72;0,0094;0,0;4,4;316;8,7;3,15;-2,99;183;0;0;15,8;20,1;21,1;28,5;18,1;18,2;18,1;17,8;-354,6;19,3;1574
2022-07-07 17:00:00;18,5;100378;67;0,0088;0,0;5,4;336;9,9;4,9;-2,19;193;0;0;15,8;20,1;21,1;28,4;18,2;18,2;18,1;17,8;-360,5;19,2;1579
2022-07-07 18:00:00;17,4;100435;64;0,0079;0,0;5,5;344;9,1;5,26;-1,52;116;0;0;15,8;20,1;21,1;28,4;18,1;18,2;18,1;17,8;-360,9;19,2;1571
2022-07-07 19:00:00;15,5;100555;65;0,0071;0,0;3,4;339;7,0;3,17;-1,13;27;0;0;15,8;20,1;21,1;28,4;17,9;18,1;18,1;17,8;-363,7;19,2;1588
2022-07-07 20:00:00;14,6;100658;70;0,0072;0,0;2,0;329;3,5;1,7;-1,01;0;0;0;15,8;20,1;21,1;28,4;17,6;18,0;18,1;17,7;-365,7;19,1;1609
2022-07-07 21:00:00;14,8;100725;69;0,0072;0,0;3,0;330;5,7;2,63;-1,45;0;0;0;15,8;20,1;21,1;28,4;17,4;17,9;18,0;17,7;-366,9;19,0;1702
2022-07-07 22:00:00;14,5;100770;69;0,0071;0,0;3,4;327;6,2;2,83;-1,81;0;0;0;15,8;20,1;21,1;28,4;17,2;17,8;18,0;17,7;-368,7;18,9;1645
2022-07-07 23:00:00;13,9;100820;70;0,0069;0,0;2,8;330;5,1;2,45;-1,38;0;0;0;15,8;20,1;21,1;28,4;17,0;17,7;18,0;17,7;-366,8;18,9;1625
2022-07-08 00:00:00;12,8;100817;75;0,0068;0,0;2,2;325;4,6;1,81;-1,25;0;0;0;15,8;20,0;21,1;28,4;16,8;17,5;17,9;17,7;-364,8;18,8;1633
2022-07-08 01:00:00;12,3;100840;78;0,0069;0,0;2,2;320;3,7;1,66;-1,36;0;0;0;15,8;20,0;21,1;28,4;16,6;17,4;17,9;17,7;-369,6;18,8;1644
2022-07-08 02:00:00;12,3;100855;82;0,0072;0,0;1,7;320;3,1;1,3;-1,1;0;0;0;15,8;20,0;21,1;28,4;16,4;17,2;17,8;17,7;-372,4;18,6;1665
2022-07-08 03:00:00;12,4;100852;82;0,0074;0,0;1,9;326;3,3;1,55;-1,02;1;0;0;15,8;20,0;21,1;28,4;16,3;17,1;17,8;17,7;-367,9;18,5;1671
2022-07-08 04:00:00;12,4;100887;83;0,0074;0,0;1,7;306;3,1;1,01;-1,37;19;0;0;15,8;20,0;21,1;28,4;16,2;17,0;17,7;17,7;-376,5;18,4;1705
2022-07-08 05:00:00;12,8;100925;82;0,0075;0,0;1,9;311;3,3;1,25;-1,39;60;0;0;15,8;20,0;21,1;28,4;16,2;16,9;17,6;17,7;-375,7;18,2;1630
2022-07-08 06:00:00;13,6;100965;80;0,0077;0,0;2,4;330;4,1;2,06;-1,19;149;0;0;15,8;20,0;21,1;28,4;16,3;16,9;17,6;17,7;-376,4;18,1;1626